User: anonymous   Login
Location: Stoke Bliss
(52.2667°N, 2.5167°W)
Time: 20:59:46
(UTC+00:00)
Language:

BREEZE-M DEB (TANK) - Orbit

View from above orbital plane
View from above orbital plane
View from above satellite
View from above satellite

Ground track
Ground track

The orbit data is extracted from the following two-line orbital elements,

1 29271U 06032C   21134.19314988  .00002121  00000-0  52305-3 0  9990
2 29271  49.5257 307.7787 5299482 114.4892 308.6263  5.11347277268924
Epoch (UTC): 14 May 2021 04:38:08
Eccentricity: 0.5299482
inclination: 49.5257°
perigee height: 311 km
apogee height: 15395 km
right ascension of ascending node: 307.7787°
argument of perigee: 114.4892°
revolutions per day: 5.11347277
mean anomaly at epoch: 308.6263°
orbit number at epoch: 26892

The dashed part of the orbit path shows where the satellite is in the earth's shadow,  

DLR